[[{"header":{"parameterUnit":"m.s-1","parameterCategory":1,"la1":30.2992,"la2":30.254,"lo1":-89.0895,"lo2":-89.0443,"dy":0.0025,"dx":0.0025,"nx":19,"ny":19,"refTime":"2026-03-19T09:00:00:Z","depth":0,"parameterNumber":2,"parameterNumberName":"U-component_of_WINDS"},"data":[0,0,0,1.2558,1.2559,1.2629,1.263,1.2712,1.2713,0,0,0,0,0,0,0,0,0,0,0,1.2534,1.2535,1.2557,1.2559,1.2629,1.263,1.2712,1.2713,0,0,0,0,0,0,0,0,0,0,0,1.2534,1.2535,1.2535,1.2559,1.2629,1.263,1.2712,1.2661,0,0,0,0,0,0,0,0,0,0,1.2593,1.2571,1.2535,1.2535,1.256,1.2629,1.263,1.2658,1.2664,1.2677,0,1.2691,0,1.2703,1.2718,1.2718,0,0,0,1.256,1.2566,1.2587,1.2536,1.256,1.2629,1.2598,1.2662,1.2668,1.2685,1.2692,1.2695,1.2704,1.2718,1.2719,1.2796,1.2796,0,0,1.2556,1.2545,1.2583,1.2591,1.2582,1.2596,1.26,1.2665,1.2672,1.2692,1.2697,1.2706,1.2719,1.2719,1.2796,1.2796,0,0,0,1.2544,1.2543,1.2562,1.2588,1.2601,1.2598,1.2603,1.2669,1.2677,1.2698,1.2707,1.2719,1.272,1.2795,1.2796,1.2799,0,0,0,1.2542,1.2536,1.2561,1.2555,1.26,1.2637,1.2605,1.2672,1.268,1.2706,1.2719,1.2721,1.2795,1.2796,1.2799,1.2803,0,0,0,1.2531,1.2534,1.2544,1.2554,1.2584,1.2636,1.2647,1.2674,1.2685,1.2718,1.2721,1.2795,1.2796,1.2798,1.2802,1.2818,0,0,0,1.2515,1.2547,1.2544,1.2583,1.2583,1.2638,1.2647,1.2688,1.2717,1.272,1.2795,1.2796,1.2798,1.2801,1.2818,1.283,1.2834,0,0,1.2549,1.2551,1.2575,1.2574,1.2627,1.2629,1.2681,1.2718,1.273,1.2773,1.2775,1.2799,1.2802,1.2818,1.2866,1.2869,0,0,0,1.2582,1.2598,1.2615,1.2643,1.2672,1.2696,1.2726,1.2739,1.2775,1.2751,1.2811,1.2813,1.2823,1.2829,1.2832,1.284,1.2799,1.2799,1.2799,1.2614,1.2629,1.2668,1.2691,1.2717,1.2747,1.2769,1.2791,1.2798,1.2812,1.2824,1.2851,1.2858,1.286,1.2869,1.2833,1.2833,1.2833,1.2833,1.2665,1.269,1.2698,1.2739,1.2753,1.2787,1.2815,1.2819,1.2851,1.2844,1.2853,1.2843,1.2864,1.2872,1.2833,1.2833,1.2833,1.2833,1.2833,1.2686,1.2701,1.2717,1.2756,1.2785,1.2806,1.2836,1.2848,1.286,1.2869,1.2882,1.2882,1.2882,1.2875,1.2875,1.2875,1.2875,1.2875,1.2875,1.2702,1.272,1.2744,1.2777,1.2795,1.282,1.2848,1.2866,1.2888,1.2894,1.2894,1.2898,1.2864,1.2854,1.2877,1.2876,1.2876,1.2876,1.2876,1.2744,1.2736,1.2774,1.2792,1.283,1.2856,1.2871,1.2905,1.2921,1.2935,1.2937,1.291,1.2912,1.291,1.2902,1.2935,1.2935,1.2935,1.2935,1.2761,1.2764,1.2804,1.2832,1.286,1.2877,1.2916,1.2938,1.2959,1.2969,1.2966,1.2956,1.2954,1.2957,1.2954,1.2946,1.299,1.299,1.299,1.2787,1.2793,1.2825,1.2846,1.2876,1.29,1.2937,1.2966,1.2988,1.2993,1.2976,1.2974,1.2959,1.2954,1.2957,1.2952,1.2938,0,0]},{"header":{"parameterUnit":"m.s-1","parameterCategory":1,"la1":30.2992,"la2":30.254,"lo1":-89.0895,"lo2":-89.0443,"dy":0.0025,"dx":0.0025,"nx":19,"ny":19,"refTime":"2026-03-19T09:00:00:Z","depth":0,"parameterNumber":3,"parameterNumberName":"V-component_of_WINDS"},"data":[0,0,0,3.0875,3.0874,3.0818,3.0818,3.0769,3.0769,0,0,0,0,0,0,0,0,0,0,0,3.0907,3.0908,3.0875,3.0874,3.0818,3.0818,3.0769,3.0769,0,0,0,0,0,0,0,0,0,0,0,3.0907,3.0907,3.0908,3.0874,3.0818,3.0818,3.0769,3.0803,0,0,0,0,0,0,0,0,0,0,3.0853,3.0899,3.0907,3.0908,3.0874,3.0818,3.0818,3.0804,3.0801,3.0805,0,3.0815,0,3.0791,3.0768,3.0767,0,0,0,3.0862,3.0902,3.0873,3.0908,3.0873,3.0818,3.084,3.0802,3.0798,3.0801,3.0814,3.0811,3.0791,3.0767,3.0767,3.0834,3.0835,0,0,3.0865,3.0906,3.0875,3.0871,3.0883,3.0842,3.0838,3.0799,3.0816,3.0814,3.081,3.079,3.0767,3.0767,3.0833,3.0834,0,0,0,3.0882,3.0909,3.0879,3.0874,3.0862,3.084,3.0836,3.0817,3.0804,3.0809,3.0789,3.0767,3.0767,3.0832,3.0833,3.0915,0,0,0,3.0883,3.0918,3.0881,3.0906,3.0863,3.084,3.0856,3.0807,3.0801,3.0789,3.0767,3.0767,3.0831,3.0833,3.0911,3.0947,0,0,0,3.0905,3.0921,3.0918,3.0908,3.0886,3.0839,3.0824,3.0805,3.079,3.0767,3.0767,3.083,3.0832,3.0907,3.094,3.0974,0,0,0,3.0941,3.0994,3.092,3.0971,3.0886,3.0891,3.0823,3.0825,3.0816,3.0767,3.0831,3.0833,3.0906,3.0936,3.097,3.1009,3.1029,0,0,3.103,3.1006,3.1032,3.0965,3.0993,3.0896,3.0935,3.0888,3.0849,3.084,3.0841,3.0912,3.094,3.0973,3.1133,3.115,0,0,0,3.1074,3.1093,3.1091,3.1084,3.105,3.1021,3.0963,3.0945,3.0936,3.0854,3.0933,3.0948,3.0966,3.0982,3.0997,3.1008,3.0843,3.0843,3.0843,3.1258,3.1204,3.1242,3.1181,3.1175,3.1113,3.1102,3.1066,3.1015,3.1034,3.1031,3.1135,3.1155,3.1166,3.1178,3.1048,3.1049,3.1049,3.1049,3.1381,3.1398,3.1326,3.1338,3.1279,3.1288,3.1229,3.1192,3.1189,3.1133,3.1146,3.1088,3.1186,3.1193,3.1055,3.1054,3.1053,3.1052,3.1052,3.1494,3.1493,3.147,3.1451,3.1443,3.1378,3.1378,3.1325,3.1275,3.1288,3.1277,3.1275,3.1265,3.1287,3.1287,3.1287,3.1288,3.1288,3.1288,3.162,3.1591,3.1599,3.1564,3.155,3.1526,3.1462,3.1447,3.1416,3.1377,3.1376,3.132,3.1206,3.1177,3.1293,3.1292,3.1292,3.1291,3.1291,3.1762,3.1721,3.1733,3.1719,3.1672,3.1665,3.1597,3.1569,3.1548,3.1549,3.149,3.1415,3.1386,3.1375,3.135,3.1504,3.1504,3.1504,3.1504,3.1856,3.1836,3.1834,3.1815,3.1791,3.173,3.1741,3.169,3.1632,3.1615,3.1585,3.1548,3.1539,3.1515,3.1501,3.1477,3.1659,3.1659,3.1659,3.1939,3.1914,3.1935,3.1878,3.1836,3.1801,3.1808,3.1787,3.1712,3.1664,3.1599,3.1593,3.1533,3.1517,3.1469,3.1447,3.1402,0,0]}]]